Location: *
(0.1100°N, 5.5000°E)
Time: 08:57:49
(UTC+00:00)

COSMOS 2251 DEB - Visible Passes

Search period start: 01 December 2023 00:00
Search period end: 11 December 2023 00:00
Orbit: 738 x 779 km, 74.0° (Epoch: 29 November)

Date Brightness Start Highest point End Pass type
(mag) Time Alt. Az. Time Alt. Az. Time Alt. Az.
04 Dec ? 19:44:43 10° SSE 19:44:43 10° SSE 19:44:43 10° SSE visible
05 Dec ? 19:03:19 15° SE 19:03:19 15° SE 19:04:24 10° SE visible
05 Dec ? 20:43:11 12° SW 20:43:11 12° SW 20:44:01 10° SW visible
06 Dec ? 18:20:45 14° E 18:20:45 14° E 18:22:49 10° ESE visible
06 Dec ? 20:00:28 28° W 20:01:34 31° WSW 20:06:10 10° SSW visible
07 Dec ? 19:16:40 10° NNW 19:21:48 71° WSW 19:27:01 10° S visible
08 Dec ? 18:37:02 10° N 18:42:02 51° ENE 18:47:07 10° SSE visible
09 Dec ? 17:58:15 10° NNE 18:02:17 23° ENE 18:06:21 10° SE visible
09 Dec ? 19:40:05 10° NW 19:43:50 20° WSW 19:47:38 10° SSW visible
10 Dec ? 18:59:08 10° NNW 19:04:02 44° WSW 19:09:02 10° S visible
